Location: ???? ?????????
(31.1304°N, 31.7111°E)
Time: 02:03:38
(UTC+00:00)

MOS 1 Rocket - Pass Details

Date: 29 October 2020
Orbit: 615 x 829 km, 97.4° (Epoch: 25 November)

Event Time Altitude Azimuth Distance (km) Brightness Sun altitude
Rises 16:26:34 0° 15° (NNE) 3,097 6.4 -17.6°
Reaches altitude 10° 16:28:48 10° 18° (NNE) 2,208 5.7 -18.0°
Maximum altitude 16:33:39 67° 101° (E) 812 3.3 -19.1°
Drops below altitude 10° 16:38:45 10° 184° (S) 2,329 6.1 -20.2°
Sets 16:41:09 0° 186° (S) 3,281 6.9 -20.7°
